Location: PSU-Greenbush Astrophysical Observatory
(37.5140°N, 94.9880°W)
Time: 05:42:09
(UTC-06:00)

Vanguard 2 - Visible Passes

Search period start: 25 January 2020 00:00
Search period end: 04 February 2020 00:00
Orbit: 553 x 2938 km, 32.9° (Epoch: 25 January)

Date Brightness Start Highest point End Pass type
(mag) Time Alt. Az. Time Alt. Az. Time Alt. Az.
28 Jan 12.4 06:06:31 10° SSE 06:11:43 12° SE 06:16:41 10° ESE visible
29 Jan 12.2 06:19:25 10° S 06:29:32 18° SE 06:38:41 10° ESE visible
30 Jan 12.0 06:34:33 10° S 06:47:18 25° SE 06:58:30 10° E visible
31 Jan 11.9 06:50:35 10° SSW 07:05:04 32° SE 07:17:30 10° E visible
01 Feb 12.1 05:03:51 10° SSE 05:12:06 15° SE 05:20:12 10° ESE visible
02 Feb 11.9 05:18:12 10° S 05:29:41 22° SE 05:40:54 10° E visible
03 Feb 11.8 05:33:51 10° SSW 05:47:17 28° SE 06:00:21 10° E visible
